Hourly Data Report for May 27, 2003

SHERBROOKE A
QUEBEC

45°26'00.000" N
71°41'00.000" W
241.40 m
7028124
71610
YSC

Download Data

Hourly Data (May 2003)
Hourly Data Report for May 27, 2003
TIME
LST
Temp Definition
°C
Dew Point Definition
°C
Rel Hum Definition
%
Precip. Amount Definition
mm

Wind Dir Definition
10's deg

Wind Spd Definition
km/h
Visibility Definition
km
Stn Press Definition
kPa
Hmdx Definition


Wind Chill Definition


Weather Definition


00:00 10.7 10.4 98   6 6 15.0 98.80     Rain
01:00 10.5 10.2 98   7 6 11.3 98.77     Rain
02:00 10.5 10.2 98   5 6 9.7 98.76      
03:00 10.5 10.2 98   5 4 6.4 98.78     Drizzle
04:00 10.5 10.2 98   4 4 5.6 98.79     Drizzle
05:00 10.7 10.3 97   5 4 8.0 98.84      
06:00 11.4 10.9 97   3 4 15.0 98.85      
07:00 12.1 11.3 95   7 7 24.1 98.88     Cloudy
08:00 12.8 10.9 88   8 7 24.1 98.89     Mostly Cloudy
09:00 14.6 10.6 77   15 4 24.1 98.85     Mostly Cloudy
10:00 15.6 10.4 71   1 4 24.1 98.84     Mostly Cloudy
11:00 16.9 10.2 65   6 9 24.1 98.80     Mostly Cloudy
12:00 15.7 9.1 65   3 7 24.1 98.77     Mostly Cloudy
13:00 16.2 10.5 69   30 7 24.1 98.72     Mostly Cloudy
14:00 16.4 10.8 69   24 7 24.1 98.66     Mostly Cloudy
15:00 16.4 9.6 64   22 7 24.1 98.64     Mostly Cloudy
16:00 16.1 10.5 69   25 6 24.1 98.63     Cloudy
17:00 16.0 10.8 71   24 6 15.0 98.62      
18:00 15.7 11.4 76     0 15.0 98.60      
19:00 14.6 11.9 84   21 4 15.0 98.58      
20:00 13.6 11.5 87     0 15.0 98.57      
21:00 12.7 10.5 86     0 15.0 98.54      
22:00 9.7 9.2 97     0 1.0 98.49      
23:00 8.1 7.6 97   12 6 1.3 98.49      

Notes on Data Quality.

Legend

  • E = Estimated
  • M = Missing
  • NA = Not Available*
  • [empty] = Indicates an unobserved value
Date modified: